YUBILEINY (RS30)

Last updated on Mon Sep 07 2026 00:03:13 GMT+0000 (Coordinated Universal Time)

1 32953U 08025A 26249.62278847 -.00000074 00000+0 -60528-3 0 9990 2 32953 82.5040 304.7939 0020573 132.2631 228.0198 12.43182198829810
UTC large
Height (km)
Speed (km/s)
/
Latitude / Longitude
Inclination (degrees)
Orbital Period (minutes)
Azimuth
Elevation
Range (km)
Doppler Factor

Next 0 passes for location: London (51.5072 / 0.1276)

No passes found over London.
YUBILEINY (RS30)